DW7210 Weather Reports


Display with metric or nautical units.
time (UTC)temp
F
wind
direction
speed
MPH
gust
MPH
rain 1hr
in
rain 24hr
in
rain mn
in
humidity
%
barometer
mb
20260831050336 86 0.0 0.0 0.00 0.00 0.00 25 1016.1
20260831045316 87 0.0 0.0 0.00 0.00 0.00 25 1016.2
20260831044316 87 0.0 0.0 0.00 0.00 0.00 25 1016.1
20260831043316 87 0.0 0.0 0.00 0.00 0.00 24 1016.0
20260831042316 88 0.0 0.0 0.00 0.00 0.00 24 1016.0
20260831041316 88 0.0 0.0 0.00 0.00 0.00 24 1015.9
20260831040316 88 0.0 0.0 0.00 0.00 0.00 24 1015.8
20260831035316 88 0.0 0.0 0.00 0.00 0.00 24 1015.6
20260831034316 88 0.0 0.0 0.00 0.00 0.00 24 1015.5
20260831033316 88 0.0 0.0 0.00 0.00 0.00 24 1015.3
20260831032336 89 0.0 0.0 0.00 0.00 0.00 24 1015.5
20260831031316 88 0.0 0.0 0.00 0.00 0.00 24 1015.4
20260831030316 89 0.0 0.0 0.00 0.00 0.00 25 1015.2
20260831025316 89 0.0 0.0 0.00 0.00 0.00 24 1014.5
20260831024316 89 0.0 0.0 0.00 0.00 0.00 24 1014.4
20260831023316 89 0.0 0.0 0.00 0.00 0.00 24 1014.3
20260831022316 90 0.0 0.0 0.00 0.00 0.00 23 1014.2
20260831021316 90 0.0 0.0 0.00 0.00 0.00 23 1014.1
20260831020316 91 0.0 0.0 0.00 0.00 0.00 22 1014.4
20260831015316 91 0.0 0.0 0.00 0.00 0.00 22 1014.4
20260831014316 92 0.0 0.0 0.00 0.00 0.00 21 1014.3
20260831013316 92 158 2.0 4.0 0.00 0.00 0.00 20 1014.2
20260831012316 93 158 3.0 5.0 0.00 0.00 0.00 20 1014.1
20260831011336 94 135 3.0 4.0 0.00 0.00 0.00 19 1014.3
20260831010356 95 0.0 0.0 0.00 0.00 0.00 19 1014.3
20260831005316 96 135 2.0 4.0 0.00 0.00 0.00 18 1014.6
20260831004316 96 225 3.0 5.0 0.00 0.00 0.00 18 1014.5
20260831003316 97 0.0 1.0 0.00 0.00 0.00 18 1014.7
20260831002316 97 225 2.0 5.0 0.00 0.00 0.00 17 1014.0
20260831001316 97 0.0 0.0 0.00 0.00 0.00 18 1014.1
20260831000318 97 158 5.0 8.0 0.00 0.00 0.00 18 1014.0
20260830235316 97 135 4.0 6.0 0.00 0.00 0.00 18 1014.4
20260830234316 97 90 3.0 6.0 0.00 0.00 0.00 18 1014.4
20260830233316 98 68 7.0 13.0 0.00 0.00 0.00 16 1014.3
20260830232336 97 0.0 0.0 0.00 0.00 0.00 16 1014.8
20260830231316 98 135 3.0 6.0 0.00 0.00 0.00 17 1015.0
20260830230316 98 113 1.0 5.0 0.00 0.00 0.00 15 1015.0
20260830225336 98 113 1.0 3.0 0.00 0.00 0.00 17 1015.9
20260830224336 99 0.0 1.0 0.00 0.00 0.00 18 1016.0
20260830223316 98 0.0 0.0 0.00 0.00 0.00 18 1015.8
20260830222336 96 0 2.0 5.0 0.00 0.00 0.00 19 1015.8
20260830221316 96 113 7.0 11.0 0.00 0.00 0.00 19 1015.9
20260830220316 97 135 4.0 8.0 0.00 0.00 0.00 19 1016.3
20260830215316 97 113 5.0 6.0 0.00 0.00 0.00 18 1016.6
20260830214336 98 0.0 0.0 0.00 0.00 0.00 20 1016.7
20260830213316 98 0.0 0.0 0.00 0.00 0.00 21 1016.9
20260830212316 99 203 4.0 7.0 0.00 0.00 0.00 20 1017.3
20260830211336 99 180 4.0 5.0 0.00 0.00 0.00 20 1017.4
20260830210316 98 225 2.0 6.0 0.00 0.00 0.00 21 1017.5
20260830205316 97 0.0 0.0 0.00 0.00 0.00 21 1017.3
20260830204316 97 135 5.0 7.0 0.00 0.00 0.00 22 1017.7
20260830203316 96 0.0 0.0 0.00 0.00 0.00 23 1017.8
20260830202316 96 135 3.0 4.0 0.00 0.00 0.00 23 1018.1
20260830201316 97 113 3.0 5.0 0.00 0.00 0.00 22 1018.2
20260830200316 96 0.0 2.0 0.00 0.00 0.00 24 1018.5
20260830195316 95 113 1.0 3.0 0.00 0.00 0.00 24 1018.4
20260830194316 96 293 2.0 6.0 0.00 0.00 0.00 24 1018.7
20260830193316 96 0.0 2.0 0.00 0.00 0.00 25 1018.7
20260830192316 96 0.0 0.0 0.00 0.00 0.00 24 1018.9
20260830191316 96 315 3.0 4.0 0.00 0.00 0.00 24 1019.0
20260830190316 95 180 2.0 3.0 0.00 0.00 0.00 25 1019.2
20260830185316 95 23 1.0 3.0 0.00 0.00 0.00 25 1019.3
20260830184316 95 180 1.0 3.0 0.00 0.00 0.00 24 1019.4
20260830183316 96 0.0 0.0 0.00 0.00 0.00 24 1019.6
20260830182316 94 0.0 0.0 0.00 0.00 0.00 25 1019.8
20260830181316 93 113 2.0 3.0 0.00 0.00 0.00 26 1019.6
20260830180336 93 225 3.0 6.0 0.00 0.00 0.00 26 1019.7
20260830175336 92 0.0 0.0 0.00 0.00 0.00 27 1019.8
20260830174316 91 225 2.0 5.0 0.00 0.00 0.00 28 1020.0
20260830173316 90 0.0 0.0 0.00 0.00 0.00 28 1019.8
20260830172316 90 0.0 0.0 0.00 0.00 0.00 28 1019.9
20260830171316 90 158 4.0 5.0 0.00 0.00 0.00 28 1020.0
20260830170316 89 180 2.0 4.0 0.00 0.00 0.00 30 1019.8
20260830165315 89 248 3.0 5.0 0.00 0.00 0.00 29 1019.8
20260830164336 88 0.0 0.0 0.00 0.00 0.00 30 1019.7
20260830163316 88 315 1.0 3.0 0.00 0.00 0.00 30 1019.7
20260830162316 87 0.0 0.0 0.00 0.00 0.00 31 1019.5
20260830161456 87 270 2.0 6.0 0.00 0.00 0.00 30 1019.4
20260830160316 87 0.0 0.0 0.00 0.00 0.00 30 1019.5
20260830155316 87 0.0 0.0 0.00 0.00 0.00 30 1019.5
20260830154356 86 0.0 0.0 0.00 0.00 0.00 31 1019.5
20260830153316 86 0.0 1.0 0.00 0.00 0.00 32 1019.5
20260830152316 85 0.0 0.0 0.00 0.00 0.00 32 1019.5
20260830151356 85 0.0 0.0 0.00 0.00 0.00 33 1019.5
20260830150316 86 0.0 0.0 0.00 0.00 0.00 31 1019.6
20260830145316 85 0.0 0.0 0.00 0.00 0.00 31 1019.6
20260830144316 85 0.0 0.0 0.00 0.00 0.00 32 1019.6
20260830143316 83 0.0 0.0 0.00 0.00 0.00 36 1019.4
20260830142336 81 0.0 0.0 0.00 0.00 0.00 38 1019.5
20260830141316 80 0.0 0.0 0.00 0.00 0.00 38 1019.2
20260830140316 81 0.0 0.0 0.00 0.00 0.00 36 1019.3
20260830135316 81 0.0 0.0 0.00 0.00 0.00 35 1019.2
20260830134316 82 135 2.0 3.0 0.00 0.00 0.00 34 1019.4
20260830133315 81 0.0 0.0 0.00 0.00 0.00 34 1018.8
20260830132315 81 135 1.0 3.0 0.00 0.00 0.00 35 1018.9
20260830131335 80 0.0 0.0 0.00 0.00 0.00 35 1019.0
20260830130315 80 113 2.0 3.0 0.00 0.00 0.00 35 1018.9
20260830125316 80 0.0 0.0 0.00 0.00 0.00 35 1018.6
20260830124315 81 135 2.0 3.0 0.00 0.00 0.00 34 1018.9
20260830123336 81 135 3.0 6.0 0.00 0.00 0.00 33 1018.8
20260830122315 81 135 4.0 6.0 0.00 0.00 0.00 34 1018.7
20260830121316 79 113 3.0 4.0 0.00 0.00 0.00 36 1018.3
20260830120315 77 0.0 0.0 0.00 0.00 0.00 38 1018.0
20260830115316 77 0.0 0.0 0.00 0.00 0.00 38 1018.2
20260830114316 77 0.0 0.0 0.00 0.00 0.00 37 1018.2
20260830113315 77 0.0 0.0 0.00 0.00 0.00 37 1018.3
20260830112315 77 0.0 0.0 0.00 0.00 0.00 37 1018.2
20260830111315 78 0.0 0.0 0.00 0.00 0.00 36 1018.3
20260830110316 78 0.0 0.0 0.00 0.00 0.00 35 1018.5
20260830105316 79 0.0 0.0 0.00 0.00 0.00 34 1018.7
20260830104315 80 0.0 0.0 0.00 0.00 0.00 33 1018.9
20260830103336 82 0.0 0.0 0.00 0.00 0.00 30 1019.0
20260830102316 85 158 3.0 4.0 0.00 0.00 0.00 29 1019.0
20260830101316 85 158 6.0 8.0 0.00 0.00 0.00 29 1018.8
20260830100315 85 135 7.0 10.0 0.00 0.00 0.00 28 1018.7
20260830095315 85 135 7.0 11.0 0.00 0.00 0.00 28 1018.6
20260830094315 85 135 7.0 11.0 0.00 0.00 0.00 28 1018.7
20260830093335 85 135 7.0 10.0 0.00 0.00 0.00 28 1018.6
20260830092316 86 158 5.0 8.0 0.00 0.00 0.00 28 1018.6
20260830091315 86 135 7.0 9.0 0.00 0.00 0.00 28 1018.6
20260830090315 86 135 8.0 13.0 0.00 0.00 0.00 27 1018.7
20260830085315 86 158 7.0 9.0 0.00 0.00 0.00 27 1018.8
20260830084315 86 135 5.0 8.0 0.00 0.00 0.00 28 1019.0
20260830083316 86 135 6.0 8.0 0.00 0.00 0.00 27 1018.8
20260830082316 86 158 4.0 6.0 0.00 0.00 0.00 26 1019.0
20260830081315 86 135 6.0 8.0 0.00 0.00 0.00 26 1019.0
20260830080315 86 135 3.0 5.0 0.00 0.00 0.00 25 1019.0
20260830075316 86 113 3.0 4.0 0.00 0.00 0.00 26 1019.0
20260830074315 86 135 2.0 4.0 0.00 0.00 0.00 26 1018.8
20260830073315 86 135 3.0 7.0 0.00 0.00 0.00 26 1019.0
20260830072316 86 113 6.0 9.0 0.00 0.00 0.00 26 1018.9
20260830071316 87 113 6.0 13.0 0.00 0.00 0.00 25 1018.9
20260830070315 87 135 6.0 13.0 0.00 0.00 0.00 25 1018.7
20260830065315 87 135 7.0 10.0 0.00 0.00 0.00 25 1019.0
20260830064315 88 113 10.0 17.0 0.00 0.00 0.00 24 1018.9
20260830063315 88 113 8.0 12.0 0.00 0.00 0.00 25 1018.9
20260830062315 88 135 9.0 12.0 0.00 0.00 0.00 25 1018.7
20260830061315 88 113 4.0 7.0 0.00 0.00 0.00 25 1018.7
20260830060335 88 135 5.0 9.0 0.00 0.00 0.00 25 1018.7
20260830055315 89 135 6.0 12.0 0.00 0.00 0.00 25 1018.4
20260830054335 89 90 10.0 16.0 0.00 0.00 0.00 25 1018.7
20260830053316 89 113 8.0 12.0 0.00 0.00 0.00 26 1018.7
20260830052335 89 135 4.0 7.0 0.00 0.00 0.00 26 1018.4
20260830051335 88 113 5.0 8.0 0.00 0.00 0.00 27 1018.3